User: anonymous   Login
Location: Unspecified
(0.0000°N, 0.0000°E)
Time: 16:15:04
(UTC+02:00)
Language:

Iridium 4 Rocket - Orbit

View from above orbital plane
View from above orbital plane
View from above satellite
View from above satellite

Ground track
Ground track

The orbit data is extracted from the following two-line orbital elements,

1 24797U 97020F   15148.43712891  .00000232  00000-0  45664-4 0  9997
2 24797 086.8961 268.1840 0224434 300.1486 123.3262 14.43616790949629
Epoch (UTC): 28 May 2015 10:29:27
Eccentricity: 0.0224434
inclination: 86.8961°
perigee height: 586 km
apogee height: 906 km
right ascension of ascending node: 268.1840°
argument of perigee: 300.1486°
revolutions per day: 14.43616790
mean anomaly at epoch: 123.3262°
orbit number at epoch: 94962

The dashed part of the orbit path shows where the satellite is in the earth's shadow,  

DLR